QZS-2 (MICHIBIKI-2)

Last updated on Tue Sep 22 2026 00:03:14 GMT+0000 (Coordinated Universal Time)

1 42738U 17028A 26263.82454659 -.00000159 00000+0 00000+0 0 9998 2 42738 39.2908 241.7459 0749366 270.5255 285.4413 1.00259217 8585
UTC large
Height (km)
Speed (km/s)
/
Latitude / Longitude
Inclination (degrees)
Orbital Period (minutes)
Azimuth
Elevation
Range (km)
Doppler Factor

Next 0 passes for location: London (51.5072 / 0.1276)

No passes found over London.
QZS-2 (MICHIBIKI-2)